Terminal Aerodrome Forecast
Issued by NWS Rapid City, SD

Home | Current Version | Previous Version | Graphics & Text | Print | Product List | Glossary On
Versions: 1 2 3 4 5 6 7 8 9 10 11 12 13 14 15 16 17 18
000
FTUS43 KUNR 241100
TAFRAP
TAF
KRAP 241126Z 2412/2512 28010KT P6SM BKN150
     FM241700 32023G35KT P6SM SCT040
     FM241900 33035G47KT P6SM BKN050
     FM242300 33024G34KT P6SM SKC
     FM250300 33015KT P6SM SKC=

USA.gov is the U.S. government's official web portal to all federal, state and local government web resources and services.